Regional Weather Roundup
Issued by NWS Green Bay, WI

Home | Current Version | Previous Version | Graphics & Text | Print | Product List | Glossary Off
Versions: 1 2 3 4 5 6 7 8 9 10 11 12 13 14 15 16 17 18 19 20 21 22 23 24 25 26 27 28 29 30 31 32 33 34 35 36 37 38 39 40 41 42 43 44 45 46 47 48 49 50

589
ASUS43 KGRB 011600
RWRGRB

NORTH-CENTRAL AND NORTHEAST WISCONSIN REGIONAL WEATHER ROUNDUP
NATIONAL WEATHER SERVICE GREEN BAY WI
1000 AM CST WED MAR 01 2017

WIZ005-009-010>012-018-019-011700-
NORTH CENTRAL WISCONSIN

CITY           SKY/WX    TMP DP  RH WIND       PRES   REMARKS
IRONWOOD       FLURRIES  21  17  84 NE10G21   29.79S WCI  10
MANITOWISH WTR NOT AVBL
ARBOR VITAE    NOT AVBL
EAGLE RIVER    NOT AVBL
LAND O LAKES   NOT AVBL
RHINELANDER    SNOW      22  19  89 N8        29.65R VSB 1/2
PHILLIPS       NOT AVBL
ANTIGO         NOT AVBL
TOMAHAWK       NOT AVBL
MERRILL        NOT AVBL
$$

WIZ013-073-011700-
NORTHEAST WISCONSIN

CITY           SKY/WX    TMP DP  RH WIND       PRES   REMARKS
IRON MOUNTAIN  LGT SNOW  24  17  74 N21G30    29.61R WCI   9
MARINETTE      LGT SNOW  25  22  88 N16G23    29.57R FOG
$$

WIZ017-030-035>037-045-011700-
CENTRAL WISCONSIN

CITY           SKY/WX    TMP DP  RH WIND       PRES   REMARKS
MEDFORD        NOT AVBL
WAUSAU         LGT SNOW  24  19  81 N17G26    29.61S
MOSINEE        SNOW      25  21  86 N15G25    29.62R VSB 1/2
MARSHFIELD     FOG       25  21  85 N12G22    29.63R VSB 1/4
WISC RAPIDS    SNOW      26  25  96 N15       29.65R VSB 1/4
STEVENS POINT  NOT AVBL
WAUPACA        NOT AVBL
SHAWANO        LGT SNOW  29  26  88 N8        29.57R
CLINTONVILLE   NOT AVBL
WAUTOMA        SNOW      29  27  92 NW13G24   29.61R VSB 1/2
$$

WIZ038-039-048-051-011700-
FOX VALLEY

CITY           SKY/WX    TMP DP  RH WIND       PRES   REMARKS
NWS GREEN BAY  LGT SNOW  28  26  92 N18       29.54R VSB 3/4
APPLETON       NOT AVBL
OSHKOSH        LGT SNOW  29  27  92 N12       29.55R VSB 3/4
FOND DU LAC    LGT SNOW  30  25  81 N17       29.55R VSB 1
$$

WIZ022-050-052-011700-
EAST CENTRAL WISCONSIN

CITY           SKY/WX    TMP DP  RH WIND       PRES   REMARKS
EPHRAIM        NOT AVBL
WASHINGTON ISL NOT AVBL
STURGEON BAY   LGT SNOW  26  23  88 N25G33    29.53S FOG
MANITOWOC      HVY SNOW  28  27  93 N14G21    29.51R VSB 1/4
SHEBOYGAN      HVY SNOW  29  26  89 N15       29.50F VSB 1/4
$$

LMZ563-521-522-541>543-011700-
LAKESHORE

STATION/POSITION TIME  TEMP    WIND        PRES    VSBY  WAVE
                       AIR SEA DIR/SP/G                  HT/PER
                 (UTC) (F)     (DEG/KT/KT) (MB)    (MI)  (FT/S)
SHEBOYGAN LKSHOR 1500   31     330/ 13/ 17  999.5R
KEWAUNEE LKSHORE 1530   27      10/ 17/ 24  999.4R
NORTHPORT PIER   1540   26     360/ 25/ 32 1001.0R
CHAMBERS ISLAND  1540   26     350/ 25/ 31 1000.3R
MENOMINEE LKSHOR 1530   26     340/ 20/ 25 1000.7R
$$




USA.gov is the U.S. government's official web portal to all federal, state and local government web resources and services.